Weather History for KLUK - April, 2014

Change the Weather History Date:

Tuesday, April 29, 2014

  Actual Average Record
Temperature  
Mean Temperature 64 °F -  
Max Temperature 75 °F 70 °F 88 °F (1970)
Min Temperature 54 °F 45 °F 32 °F (1977)
Growing Degree Days 14 (Base 50)    
Moisture  
Dew Point 59 °F    
Average Humidity 87    
Maximum Humidity 100    
Minimum Humidity 44    
Precipitation  
Precipitation 0.49 in - - ()
Sea Level Pressure  
Sea Level Pressure 29.66 in    
Wind  
Wind Speed 9 mph (SSW)    
Max Wind Speed 36 mph    
Max Gust Speed 51 mph    
Visibility 9 miles    
Events Rain , Thunderstorm    
Averages and records for this station are not official NWS values.
T = Trace of Precipitation, MM = Missing Value Source: NWS Daily Summary

Daily Weather History Graph

Daily Weather History Graph

Search for Another Location

Airport or City:

Trip Planner

Search our weather history database for the weather conditions in past years. The results will help you decide how hot, cold, wet, or windy it might be!

Date:

Astronomy

Apr. 29, 2014 Rise Set
Actual Time 6:41 AM EDT 8:28 PM EDT
Civil Twilight 6:13 AM EDT 8:57 PM EDT
Nautical Twilight 5:38 AM EDT 9:32 PM EDT
Astronomical Twilight 5:01 AM EDT 10:09 PM EDT
Moon 6:59 AM EDT (4/29) 9:07 PM EDT (4/29)
Length of Visible Light 14h 44m
Length of Day
13h 46m
New Moon, 0% of the Moon is Illuminated
Apr 29
New Moon
May 6
First Quarter
May 14
Full
May 21
Last Quarter
May 28
New

Hourly Weather History & Observations

Time (EDT) Temp. Dew Point Humidity Pressure Visibility Wind Dir Wind Speed Gust Speed Precip Events Conditions
12:53 AM 61.0 °F 61.0 °F 100% 29.64 in 10.0 mi SSE 5.8 mph - 0.01 in   Mostly Cloudy
1:53 AM 62.1 °F 62.1 °F 100% 29.60 in 4.0 mi Variable 4.6 mph - 0.07 in Rain Rain
2:31 AM 62.1 °F 62.1 °F 100% 29.59 in 5.0 mi SW 13.8 mph 19.6 mph 0.07 in Rain Rain
2:39 AM 62.1 °F 62.1 °F 100% 29.59 in 7.0 mi South 16.1 mph 21.9 mph 0.09 in Rain Light Rain
2:53 AM 63.0 °F 63.0 °F 100% 29.58 in 10.0 mi SSE 10.4 mph 19.6 mph 0.09 in Rain Light Rain
3:46 AM 62.1 °F 62.1 °F 100% 29.57 in 10.0 mi South 4.6 mph - 0.02 in   Overcast
3:53 AM 62.1 °F 62.1 °F 100% 29.57 in 10.0 mi SW 6.9 mph - 0.02 in   Overcast
4:01 AM 62.1 °F 62.1 °F 100% 29.57 in 10.0 mi SSW 4.6 mph - N/A   Overcast
4:11 AM 62.1 °F 62.1 °F 100% 29.57 in 10.0 mi South 3.5 mph - N/A   Overcast
4:31 AM 62.1 °F 62.1 °F 100% 29.56 in 10.0 mi South 4.6 mph - N/A   Mostly Cloudy
4:53 AM 61.0 °F 61.0 °F 100% 29.55 in 10.0 mi SSW 3.5 mph - N/A   Mostly Cloudy
5:53 AM 62.1 °F 62.1 °F 100% 29.56 in 10.0 mi SSW 5.8 mph - N/A   Overcast
6:48 AM 62.6 °F 62.6 °F 100% 29.59 in 10.0 mi South 6.9 mph - N/A   Mostly Cloudy
6:53 AM 62.1 °F 62.1 °F 100% 29.57 in 10.0 mi South 6.9 mph - N/A   Overcast
7:53 AM 63.0 °F 63.0 °F 100% 29.60 in 10.0 mi SSW 6.9 mph - N/A   Overcast
8:08 AM 62.1 °F 62.1 °F 100% 29.61 in 10.0 mi South 8.1 mph - N/A   Overcast
8:15 AM 63.0 °F 63.0 °F 100% 29.61 in 10.0 mi South 8.1 mph - N/A   Overcast
8:53 AM 63.0 °F 62.1 °F 97% 29.62 in 10.0 mi South 9.2 mph - N/A   Mostly Cloudy
9:53 AM 63.0 °F 61.0 °F 93% 29.64 in 10.0 mi SSW 11.5 mph - N/A   Mostly Cloudy
10:53 AM 66.0 °F 62.1 °F 87% 29.66 in 10.0 mi SSW 15.0 mph - N/A   Mostly Cloudy
11:20 AM 68.0 °F 62.1 °F 81% 29.68 in 10.0 mi South 17.3 mph - N/A   Scattered Clouds
11:53 AM 66.9 °F 60.1 °F 79% 29.67 in 10.0 mi South 15.0 mph - N/A   Scattered Clouds
12:53 PM 71.1 °F 59.0 °F 66% 29.68 in 10.0 mi South 13.8 mph - N/A   Scattered Clouds
1:53 PM 73.0 °F 55.9 °F 55% 29.69 in 10.0 mi South 12.7 mph - N/A   Scattered Clouds
2:53 PM 75.0 °F 55.9 °F 51% 29.69 in 10.0 mi South 17.3 mph 24.2 mph N/A   Partly Cloudy
3:53 PM 75.0 °F 52.0 °F 44% 29.68 in 10.0 mi SW 15.0 mph 27.6 mph N/A   Partly Cloudy
4:53 PM 73.4 °F 51.8 °F 47% 29.69 in 10.0 mi SW 13.8 mph 21.9 mph N/A   Clear
5:53 PM 73.4 °F 51.8 °F 47% 29.69 in 10.0 mi SW 16.1 mph - N/A   Clear
6:34 PM 66.0 °F 53.1 °F 63% 29.79 in 3.0 mi SSW 35.7 mph 50.6 mph 0.03 in Rain , Thunderstorm Light Thunderstorms and Rain
6:53 PM 60.1 °F 55.0 °F 83% 29.77 in 8.0 mi WSW 12.7 mph 23.0 mph 0.08 in Rain Light Rain
7:53 PM 59.0 °F 54.0 °F 83% 29.82 in 10.0 mi West 11.5 mph - 0.00 in   Scattered Clouds
8:53 PM 57.9 °F 52.0 °F 81% 29.88 in 10.0 mi WSW 12.7 mph 19.6 mph 0.00 in Rain Light Rain
9:53 PM 55.9 °F 54.0 °F 93% 29.88 in 4.0 mi SSW 5.8 mph - 0.05 in Rain Heavy Rain
10:53 PM 54.0 °F 54.0 °F 100% 29.89 in 10.0 mi SE 3.5 mph - 0.15 in Rain Light Rain
11:53 PM 54.0 °F 54.0 °F 100% 29.84 in 10.0 mi Calm Calm - 0.02 in Rain Light Rain